Location: Caltech
(34.1382°N, 118.1253°W)
Time: 13:40:59
(UTC-07:00)

ITAMSAT 1 - Visible Passes

Search period start: 26 April 2018 00:00
Search period end: 06 May 2018 00:00
Orbit: 783 x 797 km, 98.9° (Epoch: 25 April)

Date Brightness Start Highest point End Pass type
(mag) Time Alt. Az. Time Alt. Az. Time Alt. Az.
26 Apr 7.7 04:56:38 10° NNE 05:01:50 83° ESE 05:07:00 10° SSW visible
27 Apr 8.8 04:27:32 10° NNE 04:32:24 41° E 04:37:14 10° S visible
28 Apr 9.9 03:59:02 10° NE 04:02:51 21° E 04:06:39 10° SE visible
29 Apr 7.6 05:07:56 10° N 05:13:06 77° WNW 05:18:16 10° SSW visible
30 Apr 8.4 04:38:40 10° NNE 04:43:43 53° E 04:48:45 10° S visible
01 May 9.6 04:09:54 10° NE 04:14:13 26° E 04:18:31 10° SSE visible
02 May 10.3 03:42:15 10° ENE 03:44:36 13° E 03:46:55 10° ESE visible
02 May 7.8 05:19:17 10° N 05:24:22 60° WNW 05:29:27 10° SSW visible
03 May 7.9 04:49:51 10° NNE 04:55:01 69° ESE 05:00:10 10° S visible
04 May 9.2 04:20:53 10° NNE 04:25:34 34° E 04:30:14 10° SSE visible
05 May 10.1 03:52:39 10° NE 03:55:59 17° E 03:59:19 10° SE visible
05 May 8.0 05:30:41 10° N 05:35:36 46° WNW 05:40:32 10° SW visible
